Voltar ao catálogo

STARLINK-35839

AtivoComunicaçõesVLEO
NORAD 67169·PAYLOAD·🇺🇸 United States

Lançado Dec 17, 2025 de Cape Canaveral Space Force Station

Loading…

Próximas Passagens (próximas 24 horas)

TLE

AtualizadoSource: CelesTrak SupGP

Época: Sep 14, 2026, 22:41 UTC

1 67169C 25303G   26257.94562500 -.00007474  00000+0 -27068-3 0  2571
2 67169  43.0013 322.3104 0001416 264.9401 131.3903 15.27585450    18

Acompanhe STARLINK-35839 em tempo real com AllMySat

Download on the App Store